Total_Precipitation_Accumulation
0.21 0.21 0.23 0.21 0.21 0.23 0.28 0.40 0.56 0.43 0.15 0.11 0.19 0.20 0.20 0.23 0.29 0.32 0.30 0.31 0.38 0.41 0.44 0.52 0.62 0.70 0.81 1.05 1.54 2.20 2.73 3.07 2.99 2.64 2.31 2.21 2.45 2.78
0.29 0.29 0.29 0.29 0.28 0.27 0.28 0.31 0.43 0.58 0.39 0.12 0.16 0.23 0.27 0.27 0.31 0.32 0.31 0.34 0.35 0.40 0.43 0.47 0.54 0.62 0.72 0.86 1.04 1.47 2.07 2.55 2.88 3.00 2.87 2.67 2.61 2.82
0.35 0.37 0.38 0.38 0.38 0.36 0.36 0.36 0.38 0.52 0.54 0.18 0.10 0.17 0.28 0.33 0.33 0.30 0.29 0.28 0.26 0.32 0.40 0.45 0.50 0.55 0.61 0.72 0.86 1.06 1.51 1.99 2.41 2.85 3.12 3.08 2.90 2.82
0.39 0.43 0.44 0.44 0.46 0.46 0.47 0.45 0.43 0.46 0.56 0.37 0.15 0.15 0.24 0.32 0.37 0.36 0.29 0.26 0.24 0.26 0.36 0.45 0.51 0.55 0.58 0.63 0.71 0.86 1.13 1.59 1.94 2.23 2.64 2.86 2.87 2.95
0.37 0.42 0.47 0.53 0.57 0.55 0.56 0.54 0.49 0.43 0.45 0.46 0.27 0.19 0.22 0.29 0.34 0.38 0.35 0.32 0.28 0.28 0.31 0.41 0.51 0.55 0.58 0.62 0.65 0.71 0.80 1.03 1.43 1.89 2.30 2.66 2.71 2.70
0.37 0.41 0.47 0.56 0.64 0.69 0.74 0.65 0.57 0.58 0.55 0.53 0.40 0.29 0.27 0.30 0.41 0.45 0.44 0.41 0.40 0.34 0.33 0.34 0.43 0.51 0.53 0.54 0.55 0.61 0.69 0.88 1.18 1.59 1.93 2.30 2.51 2.50
0.42 0.44 0.48 0.60 0.77 0.93 1.03 0.96 0.89 0.88 0.79 0.74 0.62 0.47 0.40 0.43 0.50 0.50 0.54 0.48 0.48 0.48 0.43 0.35 0.34 0.35 0.39 0.46 0.51 0.55 0.63 0.74 0.88 1.16 1.54 1.87 2.20 2.42
0.48 0.43 0.41 0.47 0.56 0.70 0.90 0.96 1.00 1.05 1.05 0.99 0.91 0.78 0.57 0.51 0.55 0.67 0.75 0.74 0.64 0.48 0.43 0.40 0.39 0.41 0.38 0.39 0.47 0.50 0.54 0.62 0.73 0.89 1.13 1.41 1.71 2.09
0.39 0.35 0.33 0.33 0.36 0.36 0.45 0.52 0.60 0.74 0.93 1.06 1.13 0.94 0.73 0.64 0.74 0.89 0.92 0.88 0.70 0.59 0.58 0.61 0.51 0.48 0.44 0.48 0.55 0.51 0.54 0.61 0.66 0.74 0.90 1.13 1.36 1.65
0.31 0.33 0.34 0.32 0.31 0.36 0.43 0.44 0.42 0.46 0.64 0.85 0.99 0.90 0.82 0.80 0.90 1.07 1.18 1.23 1.02 0.81 0.78 0.89 0.72 0.59 0.52 0.51 0.58 0.56 0.54 0.57 0.62 0.69 0.78 0.91 1.11 1.36
0.28 0.38 0.42 0.39 0.37 0.46 0.59 0.56 0.42 0.35 0.41 0.66 0.89 0.92 0.93 1.08 1.24 1.52 1.72 1.76 1.57 1.17 1.00 1.07 0.95 0.77 0.68 0.61 0.61 0.65 0.63 0.61 0.62 0.68 0.76 0.83 0.94 1.16
0.27 0.37 0.56 0.54 0.50 0.52 0.59 0.58 0.51 0.36 0.32 0.37 0.46 0.56 0.63 0.70 0.94 1.28 1.48 1.57 1.56 1.45 1.18 1.13 1.11 1.03 1.01 0.78 0.62 0.56 0.58 0.67 0.70 0.72 0.79 0.86 0.94 1.00
0.35 0.42 0.54 0.52 0.50 0.50 0.54 0.53 0.52 0.48 0.45 0.44 0.40 0.38 0.43 0.53 0.67 0.93 1.16 1.30 1.41 1.38 1.17 1.19 1.27 1.18 1.09 0.91 0.71 0.61 0.53 0.51 0.55 0.66 0.78 0.90 1.00 1.05
0.39 0.35 0.41 0.42 0.45 0.47 0.45 0.46 0.47 0.49 0.49 0.42 0.33 0.28 0.28 0.37 0.49 0.67 0.91 1.05 1.14 1.18 1.09 1.16 1.33 1.21 1.09 0.91 0.74 0.72 0.65 0.59 0.52 0.53 0.60 0.86 1.02 1.11
0.40 0.52 0.45 0.38 0.35 0.29 0.26 0.30 0.33 0.34 0.39 0.35 0.26 0.18 0.18 0.24 0.34 0.48 0.64 0.83 0.94 0.99 1.02 1.04 1.14 1.17 1.19 1.03 0.73 0.67 0.75 0.76 0.67 0.59 0.59 0.67 0.78 0.91
0.31 0.37 0.36 0.27 0.20 0.15 0.13 0.15 0.18 0.24 0.30 0.31 0.22 0.16 0.15 0.19 0.27 0.38 0.54 0.69 0.88 0.93 0.93 1.00 1.09 1.25 1.35 1.11 0.88 0.75 0.71 0.82 0.82 0.70 0.63 0.64 0.69 0.72
0.47 0.44 0.34 0.26 0.22 0.17 0.12 0.10 0.10 0.16 0.22 0.23 0.22 0.21 0.19 0.21 0.23 0.30 0.48 0.64 0.81 0.86 0.91 1.05 1.18 1.32 1.43 1.39 1.27 0.99 0.81 0.79 0.83 0.81 0.73 0.74 0.78 0.77
0.50 0.46 0.30 0.21 0.19 0.16 0.14 0.12 0.10 0.11 0.14 0.18 0.21 0.22 0.23 0.24 0.25 0.28 0.42 0.59 0.69 0.73 0.82 0.96 1.22 1.52 1.73 1.75 1.48 1.20 0.97 0.88 0.95 0.99 0.88 0.81 0.83 0.79
0.36 0.28 0.20 0.16 0.15 0.14 0.13 0.13 0.11 0.09 0.12 0.17 0.20 0.21 0.25 0.28 0.30 0.33 0.39 0.51 0.61 0.67 0.76 0.89 1.13 1.46 1.62 1.61 1.58 1.34 1.08 0.93 1.02 1.19 1.12 0.87 0.75 0.71
0.19 0.19 0.16 0.14 0.14 0.14 0.14 0.13 0.12 0.12 0.14 0.16 0.19 0.20 0.25 0.33 0.35 0.34 0.38 0.50 0.60 0.69 0.79 0.90 1.09 1.26 1.37 1.21 1.23 1.37 1.27 1.07 1.05 1.20 1.21 1.01 0.90 0.95
0.14 0.14 0.14 0.16 0.17 0.16 0.14 0.14 0.14 0.14 0.14 0.16 0.18 0.19 0.23 0.33 0.36 0.32 0.36 0.47 0.65 0.76 0.81 0.85 0.99 1.18 1.34 1.40 1.41 1.41 1.42 1.37 1.19 1.13 1.10 1.05 1.03 1.06
0.16 0.17 0.15 0.16 0.18 0.17 0.17 0.16 0.16 0.15 0.14 0.16 0.18 0.19 0.23 0.31 0.35 0.34 0.39 0.49 0.60 0.68 0.74 0.81 0.94 1.24 1.58 1.66 1.53 1.40 1.42 1.48 1.56 1.48 1.30 1.04 0.90 0.86
0.22 0.21 0.18 0.17 0.17 0.18 0.19 0.18 0.18 0.15 0.14 0.17 0.19 0.21 0.25 0.31 0.32 0.37 0.41 0.48 0.57 0.63 0.69 0.83 1.01 1.27 1.51 1.52 1.49 1.43 1.33 1.31 1.39 1.51 1.67 1.46 1.04 0.76